Regional Weather Roundup
Issued by NWS

Home | Current Version | Previous Version | Text Only | Print | Product List | Glossary On
Versions: 1 2 3 4 5 6 7 8 9 10 11 12 13 14 15 16 17 18 19 20 21 22 23 24 25 26 27 28 29 30 31 32 33 34 35 36 37 38 39 40 41 42 43 44 45 46 47 48 49 50
000
ASUS43 KDTX 072101
RWRMI
MICHIGAN HOURLY REGIONAL WEATHER ROUNDUP
NATIONAL WEATHER SERVICE DETROIT/PONTIAC MI
500 PM EDT TUE JUL 07 2015

NOTE: "FAIR" INDICATES FEW OR NO CLOUDS BELOW 12,000 FEET WITH NO
SIGNIFICANT WEATHER AND/OR OBSTRUCTION TO VISIBILITY.

MIZ047>049-052>055-059>063-066>070-074>076-081>083-072200-
SOUTHEAST LOWER MICHIGAN

CITY           SKY/WX    TMP DP  RH WIND       PRES   REMARKS
ADRIAN         CLOUDY    66  62  87 N13       29.94R
ALMA           CLOUDY    67  53  61 N10       29.98R
ANN ARBOR      CLOUDY    66  61  84 N14       29.93R
BAD AXE        CLOUDY    61  57  86 N14G21    29.95R
CARO           CLOUDY    64  60  85 N5        29.95R
DETROIT CITY   CLOUDY    66  63  90 N9        29.92R FOG
DETROIT        CLOUDY    67  63  87 NW14      29.93R
FLINT          CLOUDY    67  59  75 N10       29.96R
GROSSE ILE     CLOUDY    70  64  83 NW12G17   29.90R
HILLSDALE      DRIZZLE   67  64  91 N9        29.96R
HOWELL         CLOUDY    64  60  85 NW5       29.96R

CITY           SKY/WX    TMP DP  RH WIND       PRES   REMARKS
JACKSON        CLOUDY    68  60  75 N12       29.96R
LAMBERTVILLE   CLOUDY    69  65  86 NW7       29.93R
LANSING        CLOUDY    66  55  67 N8        29.98R
LAPEER         RAIN      62  61  94 N9        29.95R
MASON          CLOUDY    65  60  83 N7        29.96R
MONROE         CLOUDY    67  64  90 NW13      29.91R
MT. CLEMENS    LGT RAIN  66  64  94 N14       29.91R FOG
PONTIAC        DRIZZLE   65  60  84 N13       29.94R
PORT HOPE        N/A     63  58  83 NW8G18    29.94R
PORT HURON     DRIZZLE   61  59  94 N9        29.94R
TRI CITIES     CLOUDY    69  54  58 N14       29.97R
MIDLAND        CLOUDY    66  53  62 NW8G16    29.97R
TROY           CLOUDY    68  63  83 N13       29.94R
SAGINAW HB     CLOUDY    64  55  72 NW12      29.95R
$$
MIZ043>046-050>051-056>058-064>065-071>073-077>080-072200-
SOUTHWEST LOWER MICHIGAN

CITY           SKY/WX    TMP DP  RH WIND       PRES   REMARKS
BATTLE CREEK   CLOUDY    70  58  65 N7        29.97R
BENTON HARBOR  SUNNY     63  49  60 N13G24    30.02R
BIG RAPIDS     PTSUNNY   66  47  50 N10G18    29.99R
COLDWATER      CLOUDY    69  59  71 N8        29.96R
FREMONT        FAIR      67  47  48 NW13G22   30.00R
HOLLAND        SUNNY     68  49  50 NW14G23   30.00R
GRAND RAPIDS   PTSUNNY   72  54  53 N14       29.98R
IONIA          CLOUDY    66  53  63 N8        29.98R
KALAMAZOO      CLOUDY    71  57  61 NW12      29.97R
LUDINGTON      MOSUNNY   63  49  59 N16G28    30.05R
MARSHALL       CLOUDY    69  59  71 CALM      29.96R
MOUNT PLEASANT CLOUDY    66  51  57 NW9       29.98R
MUSKEGON       MOSUNNY   69  48  47 N16       30.00R
SOUTH HAVEN    SUNNY     63  49  60 N15G26    30.01R
$$
MIZ016>042-072200-
NORTHERN LOWER MICHIGAN

CITY           SKY/WX    TMP DP  RH WIND       PRES   REMARKS
ALPENA         MOSUNNY   69  50  50 NW17G24   29.96R
BEAVER ISLAND  MOSUNNY   61  48  61 N9G17     30.03R
BELLAIRE       CLOUDY    64  47  53 NW10      30.02R
CADILLAC       PTSUNNY   64  47  55 N7G18     30.01R
CHARLEVOIX     PTSUNNY   63  49  61 N12G18    30.05R
FRANKFORT      SUNNY     65  45  48 N13G21    30.05R
GAYLORD        PTSUNNY   63  47  55 NW10G16   30.00R
GRAYLING       MOSUNNY   64  47  53 NW13G21   30.00R
HARBOR SPRINGS PTSUNNY   62  47  57 N7G16     30.01R
HOUGHTON LAKE  PTSUNNY   65  48  54 NW15G23   30.00R
MANISTEE       PTSUNNY  N/A N/A N/A NW16G26   30.05R
OSCODA         CLOUDY    65  54  65 NW15      29.94R
PELLSTON       MOSUNNY   65  47  52 NW18G24   30.00R
ROGERS CITY    SUNNY     64  50  59 NW15G21   29.99R
TRAVERSE CITY  PTSUNNY   65  46  50 N14G21    30.01R
$$
MIZ007>008-015-072200-
EASTERN UPPER MICHIGAN

CITY           SKY/WX    TMP DP  RH WIND       PRES   REMARKS
KINROSS        MOSUNNY   61  48  63 NW22      29.98S
MACKINAC ISLAN MOSUNNY   63  47  57 N15G21    29.99R
NEWBERRY       PTSUNNY   60  48  65 NW15G21   30.03R
S. S. MARIE    PTSUNNY   60  48  64 NW14G22   29.99R
$$
MIZ004>006-011>014-085-072200-
CENTRAL UPPER MICHIGAN

CITY           SKY/WX    TMP DP  RH WIND       PRES   REMARKS
MANISTIQUE     SUNNY     64  46  51 N15G25    30.03R
ESCANABA       SUNNY     66  45  45 N13G20    30.05R
MENOMINEE      MOSUNNY   66  46  48 N14       30.05S
SAWYER-GWINN   SUNNY     63  41  45 N14G20    30.08R
$$
MIZ001>003-009>011-084-072200-
WESTERN UPPER MICHIGAN

CITY           SKY/WX    TMP DP  RH WIND       PRES   REMARKS
IRON MOUNTAIN  CLOUDY    67  47  48 NW13      30.07R
HOUGHTON       SUNNY     65  43  44 W8        30.08S
COPPER HARBOR    N/A     60  46  59 N14       30.06S
IRONWOOD       SUNNY     64  41  42 N5        30.10S
$$

ABBREVIATIONS USED IN REMARKS
   TC - TEMPERATURE IN CELSIUS
  WCI - WIND CHILL INDEX
   HX - HEAT INDEX
  VSB - VISIBILITY



USA.gov is the U.S. government's official web portal to all federal, state and local government web resources and services.